Location: Unspecified
(0.0000°N, 0.0000°E)
Time: 20:29:07
(UTC+00:00)

Envisat - Pass Details

Date: 26 May 2023
Orbit: 763 x 765 km, 98.2° (Epoch: 05 June)

Event Time Altitude Azimuth Distance (km) Brightness Sun altitude
Rises 02:40:54 0° 36° (NE) 3,212 6.9 -44.8°
Reaches altitude 10° 02:43:37 10° 51° (NE) 2,289 6.0 -44.2°
Enters shadow 02:43:57 11° 53° (NE) 2,189 5.9 -44.1°
